Skip Page Navigation
NASA JPL Caltech
NASA Logo - Jet Propulsion Laboratory + View the NASA Portal
+ Center for Near-Earth Object Studies
JPL Home Earth Solar System Stars & Galaxies Technology
JPL Solar System Dynamics
BODIES ORBITS EPHEMERIDES TOOLS PHYSICAL DATA DISCOVERY FAQ SITE MAP
JPL Small-Body Database Browser
Search: [ help ]  
71662 (2000 EV132)
Classification: Main-belt Asteroid          SPK-ID: 2071662
Ephemeris | Orbit Diagram | Orbital Elements | Mission Design | Physical Parameters | Discovery Circumstances | Close-Approach Data ]

[ show orbit diagram ]
Orbital Elements at Epoch 2459000.5 (2020-May-31.0) TDB
Reference: JPL 17 (heliocentric ecliptic J2000)
 Element Value Uncertainty (1-sigma)   Units 
e .1278716977027591 3.7023e-08  
a 3.156949872143156 2.1479e-08 au
q 2.753265332429702 1.2202e-07 au
i 2.488669180579008 5.3135e-06 deg
node 159.619270122018 9.6881e-05 deg
peri 324.9161712461957 9.9142e-05 deg
M 254.8165491972434 2.1374e-05 deg
tp 2459599.111243629880
(2022-Jan-19.61124363)
0.00012348 TDB
period 2048.801841564121
5.61
2.0909e-05
5.725e-08
d
yr
n .1757124543216754 1.7932e-09 deg/d
Q 3.56063441185661 2.4225e-08 au
  Orbit Determination Parameters
   # obs. used (total)      738  
   data-arc span      10202 days (27.93 yr)  
   first obs. used      1992-11-18  
   last obs. used      2020-10-24  
   planetary ephem.      DE431  
   SB-pert. ephem.      SB431-N16  
   condition code      0  
   norm. resid. RMS      .52791  
   source      ORB  
   producer      Otto Matic  
   solution date      2020-Nov-12 21:55:10  

Additional Information
 Earth MOID = 1.76922 au 
 Jupiter MOID = 1.50655 au 
 T_jup = 3.192 
[ hide covariance matrix ]
Orbital Elements at Epoch 2457282.5 (2015-Sep-17.0) TDB
Reference: JPL 17 (heliocentric ecliptic J2000)
 Element Value Uncertainty (1-sigma)   Units 
e .1239634087145461 3.7743e-08  
q 2.768328222124253 1.2415e-07 au
tp 2457551.201337624305
(2016-Jun-11.70133762)
0.00012237 TDB
node 159.7096628386832 9.6785e-05 deg
peri 325.4668920237369 9.917e-05 deg
i 2.4882450670556 5.3181e-06 deg
  Orbit Determination Parameters
   # obs. used (total)      738  
   data-arc span      10202 days (27.93 yr)  
   first obs. used      1992-11-18  
   last obs. used      2020-10-24  
   planetary ephem.      DE431  
   SB-pert. ephem.      SB431-N16  
   condition code      0  
   norm. resid. RMS      .52791  
   source      ORB  
   producer      Otto Matic  
   solution date      2020-Nov-12 21:55:10  

Additional Information
 Jupiter MOID = 1.50655 au 
 T_jup = 3.192 
Orbit Covariance (6×6)
  e q tp node peri i
e 1.424543740812329E-15 -4.633210997851929E-15 1.258536955434976E-12 -8.77407635347028E-16 2.61412299375937E-13 -3.617491575164382E-16
q -4.633210997851929E-15 1.541362089551483E-14 -3.681343110125704E-12 7.724119379256073E-15 -7.924407642985297E-13 1.688140805091174E-15
tp 1.258536955434976E-12 -3.681343110125704E-12 1.497416237437369E-8 7.587373522390618E-12 2.665020897168371E-9 1.472066710652927E-12
node -8.77407635347028E-16 7.724119379256073E-15 7.587373522390618E-12 9.367408180525723E-9 -9.357060228452331E-9 1.797994940572504E-10
peri 2.61412299375937E-13 -7.924407642985297E-13 2.665020897168371E-9 -9.357060228452331E-9 9.834760283520006E-9 -1.793782884868921E-10
i -3.617491575164382E-16 1.688140805091174E-15 1.472066710652927E-12 1.797994940572504E-10 -1.793782884868921E-10 2.828204540745961E-11

Ephemeris | Orbit Diagram | Orbital Elements | Mission Design | Physical Parameters | Discovery Circumstances | Close-Approach Data ]

Physical Parameter Table
Parameter Symbol Value Units Sigma Reference Notes
absolute magnitude H 14.8   n/a MPO493368  
diameter diameter 6.090 km 0.212 urn:nasa:pds:neowise_diameters_albedos::2.0[mainbelt] (http://adsabs.harvard.edu/abs/2011ApJ...741...68M)  
geometric albedo albedo 0.069   0.010 urn:nasa:pds:neowise_diameters_albedos::2.0[mainbelt] (http://adsabs.harvard.edu/abs/2011ApJ...741...68M)  

71662 (2000 EV132)          Discovered 2000-Mar-11 by LINEAR at Socorro
Reference: 20031109/Numbers.arcLast Updated: 2004-04-19

[ show close-approach data ]
Ephemeris | Orbit Diagram | Orbital Elements | Mission Design | Physical Parameters | Discovery Circumstances | Close-Approach Data ]
ABOUT SSD CREDITS/AWARDS PRIVACY/COPYRIGHT GLOSSARY LINKS
FirstGov 2020-Nov-28 09:13 UT
(server date/time)  
NASA Home Page
Site Manager:   Ryan S. Park
Webmaster  Alan B. Chamberlin